North Platte, NE

12:32 PM CDT on May 21, 2018 (GMT -0500)
North Platte Regional-Bird

Weather History for KLBF - February, 2015

Change the Weather History Date:

Tuesday, February 24, 2015

  Actual Average Record
Temperature  
Mean Temperature 34 °F 32 °F  
Max Temperature 55 °F 46 °F 73 °F (1995)
Min Temperature 13 °F 17 °F -12 °F (1960)
Degree Days  
Heating Degree Days 31 33  
Month to date heating degree days 849 877  
Since 1 July heating degree days 4701 4897  
Cooling Degree Days 0 0  
Month to date cooling degree days 0 0  
Year to date cooling degree days 0 0  
Moisture  
Dew Point 18 °F    
Average Humidity 61    
Maximum Humidity 92    
Minimum Humidity 29    
Precipitation  
Precipitation 0.00 in 0.02 in 0.42 in (2007)
Month to date precipitation 0.45 0.40  
Year to date precipitation 0.73 0.74  
Snow  
Snow 0.00 in 0.10 in 2.50 in (2007)
Month to date snowfall 6.3 4.5  
Since 1 July snowfall 18.9 20.1  
Snow Depth 0.00 in    
Sea Level Pressure  
Sea Level Pressure 30.04 in    
Wind  
Wind Speed 9 mph (WNW)    
Max Wind Speed 23 mph    
Max Gust Speed 29 mph    
Visibility 10 miles    
Events      
T = Trace of Precipitation, MM = Missing Value Source: NWS Daily Summary

Daily Weather History Graph

Daily Weather History Graph

Search for Another Location

Airport or City:

Astronomy

Feb. 24, 2015 Rise Set
Actual Time 7:24 AM CST 6:27 PM CST
Civil Twilight 6:57 AM CST 6:55 PM CST
Nautical Twilight 6:25 AM CST 7:27 PM CST
Astronomical Twilight 5:53 AM CST 7:59 PM CST
Moon 10:58 AM CST (2/24) 12:19 AM CST (2/24)
Length of Visible Light 11h 58m
Length of Day
11h 02m
Waxing Crescent, 40% of the Moon is Illuminated
Feb 24
Waxing Crescent
Feb 25
First Quarter
Mar 5
Full
Mar 13
Last Quarter
Mar 20
New

Hourly Weather History & Observations

Time (CST) Temp. Windchill Dew Point Humidity Pressure Visibility Wind Dir Wind Speed Gust Speed Precip Events Conditions
12:53 AM 17.1 °F 3.6 °F 10.0 °F 74% 30.18 in 10.0 mi West 12.7 mph - N/A   Clear
1:53 AM 15.1 °F 3.3 °F 10.0 °F 80% 30.18 in 10.0 mi West 9.2 mph - N/A   Clear
2:53 AM 16.0 °F 4.4 °F 10.9 °F 81% 30.15 in 10.0 mi West 9.2 mph - N/A   Clear
3:53 AM 17.1 °F 5.8 °F 12.0 °F 81% 30.13 in 10.0 mi WNW 9.2 mph - N/A   Clear
4:53 AM 14.0 °F 3.9 °F 10.0 °F 84% 30.14 in 10.0 mi WNW 6.9 mph - N/A   Clear
5:53 AM 12.9 °F -0.2 °F 10.0 °F 88% 30.16 in 10.0 mi WNW 10.4 mph - N/A   Clear
6:53 AM 15.1 °F 4.2 °F 10.9 °F 84% 30.16 in 10.0 mi NW 8.1 mph - N/A   Clear
7:53 AM 17.1 °F 7.6 °F 12.0 °F 81% 30.17 in 10.0 mi NW 6.9 mph - N/A   Clear
8:53 AM 28.0 °F 18.1 °F 19.0 °F 69% 30.17 in 10.0 mi West 11.5 mph - N/A   Clear
9:53 AM 37.0 °F 28.9 °F 21.9 °F 54% 30.15 in 10.0 mi WNW 12.7 mph - N/A   Clear
10:53 AM 45.0 °F 37.9 °F 23.0 °F 42% 30.12 in 10.0 mi NNW 16.1 mph - N/A   Clear
11:53 AM 48.0 °F - 23.0 °F 37% 30.10 in 10.0 mi NW 21.9 mph 26.5 mph N/A   Clear
12:53 PM 51.1 °F - 23.0 °F 33% 30.06 in 10.0 mi NW 11.5 mph - N/A   Clear
1:53 PM 53.1 °F - 23.0 °F 31% 30.02 in 10.0 mi NW 15.0 mph 21.9 mph N/A   Partly Cloudy
2:53 PM 54.0 °F - 23.0 °F 30% 29.99 in 10.0 mi WNW 11.5 mph - N/A   Clear
3:53 PM 54.0 °F - 24.1 °F 31% 29.96 in 10.0 mi NW 12.7 mph 18.4 mph N/A   Clear
4:53 PM 54.0 °F - 24.1 °F 31% 29.94 in 10.0 mi WNW 8.1 mph - N/A   Clear
5:53 PM 48.9 °F - 24.1 °F 38% 29.94 in 10.0 mi West 5.8 mph - N/A   Clear
6:53 PM 37.9 °F - 21.9 °F 53% 29.95 in 10.0 mi Calm Calm - N/A   Clear
7:53 PM 30.0 °F - 19.9 °F 66% 29.94 in 10.0 mi Calm Calm - N/A   Clear
8:53 PM 27.0 °F - 19.9 °F 75% 29.91 in 10.0 mi Calm Calm - N/A   Clear
9:53 PM 30.0 °F - 21.9 °F 72% 29.88 in 10.0 mi Calm Calm - N/A   Clear
10:53 PM 24.1 °F 19.7 °F 19.0 °F 81% 29.86 in 10.0 mi WNW 3.5 mph - N/A   Clear
11:53 PM 28.0 °F 20.8 °F 21.9 °F 78% 29.82 in 10.0 mi NW 6.9 mph - N/A   Clear